Vertical_Velocity
-0 -3 5 1 -6 -6 2 -1 2 -1 -1 -2 -1 2 0 3 1 1 -0 -2 -0 1 -0 -0 -1 -1 -2 0 0 1 -2 3 2 -2 -1 0 -2 1 -2 -2 -1 -0 0 -1
-0 14 -2 -2 -3 -2 1 -2 -1 0 -0 -1 -1 2 0 1 0 1 2 -0 -2 1 1 0 -2 -1 1 -2 1 1 -2 1 -1 -2 -1 2 1 1 0 -1 -0 -3 -1 0
0 -2 -1 -2 -2 -1 -1 0 -2 -2 -1 2 -2 6 1 2 -1 -1 3 4 1 -3 0 1 -1 -2 1 -2 -1 2 1 0 -0 -1 -1 1 0 1 -1 -3 -1 8 1 1
2 -1 -2 -2 -0 -0 18 1 -2 -2 -1 18 -1 -1 0 -1 1 -1 1 2 1 0 -0 -1 -1 -0 2 -1 -1 -1 -1 -2 -3 -2 -2 -0 0 2 0 -1 0 -1 -1 -1
3 0 -1 -2 -3 1 -7 -1 -1 -3 -1 -6 -5 -1 13 -0 0 2 0 0 -2 0 -2 -2 -1 -1 1 -4 -2 1 0 -1 -1 -0 -0 -0 -1 3 3 0 -3 -2 -2 -4
3 -0 -1 -1 -1 -2 -4 1 -1 -4 -7 5 -10 3 22 -2 2 3 1 0 0 -0 -0 -2 -1 -1 1 -4 -4 -2 -0 -2 -0 -0 -0 -0 -0 1 -3 -1 3 -0 -0 -1
0 -2 -1 -2 -1 -1 -2 -1 -4 11 30 14 -10 -1 5 -3 1 0 2 1 2 2 1 -2 -3 -3 -0 -0 1 -1 -2 0 2 3 3 1 1 -0 1 1 3 -2 -1 -1
-0 -7 3 2 -3 0 -5 -5 -0 -0 4 15 -15 -1 11 3 -2 -4 -2 1 -1 3 0 -2 -2 -1 0 -1 -1 1 1 -1 1 4 3 3 6 1 3 -0 1 -1 -1 -2
-1 -0 -10 -2 -1 -1 -0 -5 4 -6 1 -6 8 -3 2 1 2 -3 -7 -0 -3 -0 1 0 -1 -0 -1 -4 -0 -1 -1 -1 0 -3 -4 3 3 3 -0 -1 -2 -0 -0 -2
-2 1 -1 -3 -1 -2 -1 1 -1 -4 -6 -7 13 1 -2 4 1 1 -6 -5 -2 1 1 1 -0 0 -1 -2 -4 -1 -2 -1 2 0 -4 -2 -1 1 -1 -0 -1 3 1 1
2 4 -13 -1 1 -2 -3 1 -3 -4 -1 2 0 15 -6 4 3 -0 -0 -8 -0 -2 0 1 -2 -1 -1 -1 1 0 -1 -0 0 2 0 1 1 2 -2 -4 -4 -3 -3 -3
1 1 -4 0 -6 1 -2 -1 0 2 2 -7 -6 -6 4 -3 -5 1 -3 -2 -4 -0 -4 -1 -2 1 1 1 1 -2 -1 -3 -1 1 1 1 4 1 -2 -0 -2 1 1 3
-2 3 0 0 -3 -4 -1 1 0 -5 5 -4 -2 -0 -7 -2 -4 5 -5 1 -2 1 -3 -2 -1 1 -0 -3 -4 -1 -1 1 1 3 3 -2 -1 0 1 0 1 -1 -4 -0
-3 -2 -1 9 0 1 -5 -3 -4 -3 1 -5 -5 -3 -0 2 -3 -3 -1 0 -0 -1 2 -3 -2 -4 -5 -2 -1 -1 -3 -2 -0 -1 -2 2 3 -0 -1 -0 2 0 0 -0
-2 -4 -1 -1 -1 -1 0 -2 -2 -8 -4 5 6 10 -1 9 1 -2 2 1 -4 0 2 -3 -3 -3 -0 -0 -1 -1 -1 -3 -2 -1 -1 2 -0 2 2 1 1 1 0 0
-1 -1 -4 -5 1 1 -1 -3 2 -3 -5 -1 -3 -7 6 -3 -1 0 5 -0 -3 1 -1 -4 2 2 1 -2 1 0 -1 1 -0 -1 -1 -0 1 1 -1 -1 -1 -1 -0 1
-0 -1 -1 -3 -2 -1 -3 -4 -3 5 1 -1 -5 5 -4 -1 -3 -2 1 12 -6 5 -2 -3 -1 2 4 -1 -1 -2 0 0 -2 -4 1 1 2 -3 -2 -1 -1 -1 -2 -3
-4 -0 -0 -1 -5 -0 9 -1 2 2 4 1 -2 5 -1 -1 -1 2 -0 3 4 -2 -2 -2 -2 -1 -1 1 -1 0 1 2 3 -1 3 1 -1 0 -3 -0 -1 -1 -1 0
-3 -3 -4 -2 2 4 -3 -4 1 2 1 -0 2 -0 -6 -3 -1 2 1 4 1 3 -1 2 1 2 -4 -1 -0 1 3 -1 -0 -0 1 1 -1 -3 -1 -2 -2 -1 -3 -1
-5 -5 -3 1 -2 -1 11 -5 -2 -2 -1 -14 0 -5 -1 -1 4 -15 -0 -0 -0 7 2 2 4 -2 2 -1 1 1 3 1 4 -4 -1 -1 -1 -2 -1 -1 1 -2 -3 -2
1 -1 -3 -1 -3 7 -7 -1 0 -4 0 5 -2 -6 -1 -2 -0 2 -0 7 -15 3 6 6 3 -3 -2 -1 0 -3 0 1 3 -1 2 1 1 0 -0 1 -1 -5 -3 -2
-0 -1 0 -2 -3 2 -1 2 -3 -3 -2 -1 -2 -2 3 -1 0 3 3 7 4 5 3 4 1 4 2 -0 2 -2 -1 -1 -2 1 0 1 0 0 -2 -3 -5 -4 -3 -2
-3 -1 -0 -2 -10 -1 2 -4 -2 2 -2 1 -1 -1 0 -3 -1 -1 3 5 3 1 1 0 -4 0 3 -2 -5 -1 -2 1 2 -2 1 2 -0 -1 -1 -2 -1 -0 0 -1
-2 1 -2 4 -9 -3 -2 2 1 1 -1 -2 -1 1 -0 -1 0 4 2 -0 5 12 -8 -5 20 0 10 -3 -3 2 6 14 -1 -1 -2 1 0 -1 -1 -2 -2 -1 0 2
-1 0 2 2 -8 -1 -3 2 0 -0 -1 1 6 4 1 -0 0 -0 1 -4 -21 18 1 -6 -3 -7 4 13 15 10 3 -3 3 -1 -1 -3 -2 -3 -1 -2 0 2 2 -2
-0 -2 -1 -8 0 1 -3 0 -2 1 -1 4 4 2 3 2 -0 -3 -3 -1 1 -1 -3 -2 -2 -3 -0 1 -1 -1 -1 -3 -3 -2 -1 -1 0 2 -1 -1 -0 -2 -1 -0
Height
5922 5928 5932 5932 5931 5930 5931 5932 5932 5931 5930 5930 5929 5927 5926 5924 5921 5919 5916 5913 5909 5906 5903 5899 5897 5896 5893 5892 5895 5898 5899 5900 5901 5903 5905 5907 5907 5907 5906 5906 5908 5909 5909 5909
5923 5931 5927 5927 5929 5930 5931 5933 5932 5932 5931 5930 5929 5929 5927 5925 5922 5920 5917 5915 5912 5909 5904 5900 5897 5897 5895 5894 5895 5897 5898 5898 5900 5902 5905 5907 5908 5908 5907 5907 5908 5909 5909 5910
5925 5927 5923 5925 5927 5930 5931 5933 5930 5931 5931 5931 5930 5931 5928 5925 5923 5921 5918 5916 5912 5909 5906 5902 5899 5898 5896 5894 5894 5896 5895 5896 5899 5901 5903 5905 5907 5907 5906 5907 5907 5908 5910 5910
5923 5921 5922 5924 5926 5928 5935 5929 5929 5930 5931 5934 5930 5934 5930 5925 5923 5921 5919 5917 5913 5909 5907 5903 5900 5900 5898 5895 5893 5894 5895 5896 5897 5900 5902 5904 5906 5907 5906 5906 5908 5908 5907 5908
5920 5920 5921 5922 5926 5925 5927 5927 5929 5928 5930 5931 5929 5932 5932 5927 5922 5921 5920 5916 5913 5910 5907 5904 5902 5900 5899 5896 5894 5894 5894 5895 5897 5899 5902 5904 5905 5906 5906 5907 5906 5906 5905 5905
5919 5918 5919 5921 5920 5921 5923 5925 5927 5928 5929 5932 5928 5931 5932 5926 5922 5920 5919 5915 5912 5909 5907 5905 5903 5901 5899 5897 5895 5895 5895 5895 5897 5899 5901 5903 5904 5905 5905 5906 5905 5904 5903 5902
5912 5914 5916 5916 5917 5918 5920 5926 5930 5933 5928 5930 5926 5928 5929 5924 5922 5920 5918 5915 5911 5907 5906 5905 5903 5901 5900 5898 5896 5896 5896 5896 5897 5900 5901 5902 5902 5903 5903 5903 5903 5901 5899 5898
5910 5911 5914 5914 5915 5917 5920 5923 5928 5929 5930 5929 5924 5926 5927 5922 5920 5918 5917 5915 5913 5909 5906 5904 5903 5901 5900 5897 5897 5896 5896 5895 5896 5898 5899 5900 5900 5900 5900 5901 5900 5898 5897 5896
5907 5908 5908 5910 5911 5913 5915 5916 5922 5922 5925 5923 5923 5921 5921 5920 5919 5916 5915 5914 5912 5910 5907 5905 5903 5902 5900 5898 5897 5897 5893 5894 5896 5896 5898 5899 5900 5900 5899 5899 5898 5898 5896 5895
5901 5903 5905 5906 5907 5909 5910 5915 5916 5918 5920 5921 5923 5920 5920 5918 5917 5915 5913 5913 5912 5910 5908 5907 5904 5902 5901 5899 5898 5898 5897 5897 5898 5898 5898 5899 5899 5898 5898 5897 5896 5894 5894 5893
5898 5900 5899 5902 5903 5904 5906 5907 5910 5914 5915 5917 5919 5923 5918 5916 5915 5913 5912 5911 5911 5910 5908 5908 5905 5903 5901 5900 5900 5899 5899 5899 5898 5898 5898 5899 5899 5898 5896 5894 5894 5892 5890 5889
5894 5896 5897 5898 5898 5900 5901 5904 5906 5909 5914 5912 5912 5914 5915 5914 5912 5911 5910 5910 5909 5909 5907 5906 5904 5903 5902 5900 5899 5898 5898 5897 5896 5897 5896 5896 5896 5895 5893 5892 5890 5888 5887 5885
5889 5892 5894 5896 5896 5895 5897 5899 5900 5904 5910 5910 5910 5913 5910 5910 5909 5908 5907 5907 5907 5907 5906 5905 5903 5902 5900 5899 5897 5895 5895 5896 5896 5895 5894 5893 5892 5891 5890 5889 5887 5884 5883 5882
5885 5888 5891 5897 5897 5895 5893 5894 5895 5898 5903 5905 5906 5908 5908 5907 5905 5903 5903 5903 5903 5905 5905 5904 5903 5902 5900 5899 5897 5896 5895 5894 5894 5893 5892 5891 5889 5887 5887 5885 5883 5881 5879 5876
5882 5885 5888 5889 5891 5890 5891 5892 5892 5892 5897 5902 5905 5905 5904 5904 5902 5900 5900 5899 5900 5901 5901 5900 5900 5899 5898 5897 5896 5895 5893 5892 5891 5889 5888 5887 5886 5886 5883 5882 5879 5876 5875 5873
5878 5881 5882 5884 5885 5885 5886 5888 5889 5890 5892 5895 5895 5896 5899 5897 5898 5898 5898 5896 5896 5896 5897 5897 5896 5895 5895 5894 5893 5892 5891 5889 5888 5886 5885 5883 5882 5881 5879 5876 5873 5871 5869 5867
5874 5876 5878 5881 5881 5881 5882 5884 5886 5888 5888 5890 5890 5894 5890 5890 5890 5892 5892 5891 5891 5891 5891 5892 5892 5891 5890 5889 5887 5884 5882 5880 5878 5875 5875 5876 5875 5872 5871 5869 5868 5867 5865 5864
5867 5870 5871 5873 5873 5876 5879 5879 5881 5882 5883 5884 5884 5884 5882 5881 5881 5883 5885 5884 5885 5886 5887 5887 5888 5887 5885 5885 5882 5880 5877 5875 5870 5867 5868 5868 5867 5865 5864 5862 5861 5860 5859 5857
5860 5862 5864 5865 5868 5871 5870 5872 5875 5876 5878 5878 5877 5876 5874 5873 5873 5876 5878 5879 5879 5880 5880 5881 5882 5881 5880 5880 5878 5874 5872 5869 5865 5865 5865 5864 5863 5860 5858 5856 5855 5853 5850 5848
5853 5855 5857 5859 5859 5862 5867 5862 5866 5868 5869 5868 5869 5869 5868 5866 5867 5866 5870 5871 5872 5873 5873 5874 5874 5872 5873 5873 5871 5868 5866 5865 5863 5861 5860 5858 5856 5854 5850 5848 5846 5843 5841 5839
5846 5847 5848 5850 5850 5853 5851 5853 5857 5859 5864 5862 5862 5863 5862 5861 5861 5862 5863 5864 5863 5866 5866 5867 5865 5864 5866 5867 5865 5862 5860 5859 5857 5855 5852 5849 5848 5845 5842 5840 5837 5835 5832 5830
5838 5839 5840 5840 5841 5843 5842 5844 5846 5848 5851 5853 5854 5855 5855 5855 5855 5857 5858 5859 5859 5860 5859 5859 5859 5860 5859 5859 5857 5854 5853 5852 5849 5847 5845 5842 5840 5837 5834 5831 5828 5826 5823 5820
5830 5831 5832 5832 5833 5831 5833 5834 5836 5838 5841 5843 5845 5847 5847 5847 5847 5850 5851 5852 5853 5853 5852 5852 5852 5851 5850 5851 5849 5846 5843 5840 5838 5838 5837 5834 5831 5828 5824 5821 5818 5816 5812 5809
5821 5822 5822 5823 5822 5824 5825 5825 5827 5829 5831 5832 5834 5836 5837 5838 5840 5841 5844 5845 5843 5843 5844 5842 5837 5840 5839 5838 5837 5833 5832 5829 5828 5828 5827 5824 5822 5819 5816 5812 5809 5805 5802 5799
5814 5814 5814 5814 5814 5816 5816 5817 5819 5820 5821 5821 5823 5826 5827 5829 5831 5833 5835 5835 5830 5831 5835 5835 5833 5833 5831 5828 5823 5816 5819 5821 5818 5817 5817 5815 5812 5808 5805 5801 5798 5795 5792 5790
5805 5806 5807 5807 5809 5809 5808 5809 5810 5812 5813 5813 5815 5817 5819 5819 5821 5824 5824 5825 5825 5826 5827 5828 5827 5825 5824 5821 5816 5814 5813 5811 5809 5808 5806 5804 5801 5798 5795 5792 5790 5787 5784 5782